DLH1EL EDDS-EDDF

Flight info

Callsign DLH1EL
Flight time 0h 27m
Altitude 22000
Route ETASA4B ETASA T163 SPESA SPESA5B
Aircraft A320/M-SDE3FGHIRWY/LB1

Departure

Time 2026-05-05 18:54
Airport Stuttgart Airport (EDDS)

Arrival

Time 2026-05-05 19:21
Airport Frankfurt Main Airport (EDDF)
Time Latitude Longitude Altitude Speed Heading
2026-05-05 18:23 48.68930 9.19652 1291 ft 0 kts 343°
2026-05-05 18:40 48.68910 9.19661 1290 ft 4 kts 349°
2026-05-05 18:40 48.68883 9.19665 1289 ft 4 kts
2026-05-05 18:41 48.68860 9.19654 1290 ft 4 kts 50°
2026-05-05 18:41 48.68855 9.19642 1291 ft 0 kts 73°
2026-05-05 18:44 48.68855 9.19643 1291 ft 1 kts 74°
2026-05-05 18:44 48.68871 9.19731 1285 ft 14 kts 74°
2026-05-05 18:44 48.68885 9.19854 1285 ft 10 kts 110°
2026-05-05 18:45 48.68827 9.19909 1287 ft 10 kts 130°
2026-05-05 18:45 48.68832 9.20009 1290 ft 9 kts 73°
2026-05-05 18:45 48.68856 9.20133 1285 ft 16 kts 74°
2026-05-05 18:45 48.68888 9.20302 1285 ft 18 kts 74°
2026-05-05 18:46 48.68925 9.20496 1287 ft 18 kts 74°
2026-05-05 18:46 48.68959 9.20678 1287 ft 19 kts 73°
2026-05-05 18:46 48.68998 9.20884 1287 ft 21 kts 74°
2026-05-05 18:46 48.69040 9.21100 1287 ft 21 kts 73°
2026-05-05 18:47 48.69073 9.21279 1285 ft 17 kts 74°
2026-05-05 18:47 48.69108 9.21461 1286 ft 19 kts 74°
2026-05-05 18:47 48.69147 9.21665 1285 ft 21 kts 73°
2026-05-05 18:47 48.69181 9.21847 1289 ft 17 kts 74°
2026-05-05 18:48 48.69213 9.22017 1287 ft 18 kts 74°
2026-05-05 18:48 48.69249 9.22205 1288 ft 20 kts 74°
2026-05-05 18:48 48.69289 9.22415 1287 ft 22 kts 73°
2026-05-05 18:48 48.69332 9.22639 1285 ft 19 kts 74°
2026-05-05 18:49 48.69370 9.22840 1285 ft 21 kts 73°
2026-05-05 18:49 48.69412 9.23063 1287 ft 23 kts 74°
2026-05-05 18:49 48.69450 9.23268 1286 ft 20 kts 75°
2026-05-05 18:49 48.69492 9.23478 1285 ft 22 kts 73°
2026-05-05 18:50 48.69534 9.23708 1285 ft 24 kts 75°
2026-05-05 18:50 48.69576 9.23923 1287 ft 17 kts 74°
2026-05-05 18:50 48.69607 9.24097 1285 ft 17 kts 76°
2026-05-05 18:50 48.69578 9.24238 1286 ft 14 kts 122°
2026-05-05 18:51 48.69503 9.24315 1285 ft 9 kts 168°
2026-05-05 18:51 48.69493 9.24318 1285 ft 0 kts 168°
2026-05-05 18:52 48.69483 9.24321 1287 ft 8 kts 168°
2026-05-05 18:53 48.69399 9.24307 1286 ft 14 kts 222°
2026-05-05 18:53 48.69315 9.23930 1287 ft 75 kts 255°
2026-05-05 18:53 48.69108 9.22830 1286 ft 140 kts 254°
2026-05-05 18:53 48.68822 9.21265 1685 ft 156 kts 254°
2026-05-05 18:54 48.68537 9.19678 2468 ft 156 kts 253°
2026-05-05 18:54 48.68216 9.18102 3107 ft 164 kts 252°
2026-05-05 18:54 48.67869 9.16333 3459 ft 186 kts 253°
2026-05-05 18:54 48.67469 9.14339 3846 ft 210 kts 252°
2026-05-05 18:55 48.67048 9.12133 4529 ft 223 kts 257°
2026-05-05 18:55 48.67208 9.09802 5455 ft 234 kts 292°
2026-05-05 18:55 48.68262 9.07769 6103 ft 262 kts 318°
2026-05-05 18:55 48.70009 9.06733 6878 ft 284 kts 351°
2026-05-05 18:56 48.72020 9.06808 7786 ft 292 kts 359°
2026-05-05 18:56 48.74059 9.07048 8738 ft 296 kts
2026-05-05 18:56 48.76127 9.07335 9666 ft 301 kts
2026-05-05 18:56 48.78254 9.07636 10268 ft 317 kts
2026-05-05 18:57 48.80533 9.07944 10612 ft 339 kts
2026-05-05 18:57 48.82911 9.08259 11290 ft 347 kts
2026-05-05 18:57 48.85338 9.08573 12096 ft 352 kts
2026-05-05 18:57 48.87792 9.08886 12914 ft 356 kts
2026-05-05 18:58 48.90280 9.09197 13590 ft 361 kts
2026-05-05 18:58 48.92796 9.09511 13958 ft 365 kts
2026-05-05 18:58 48.95331 9.09831 14747 ft 367 kts
2026-05-05 18:58 48.97882 9.10156 15469 ft 370 kts
2026-05-05 18:59 49.00456 9.10483 16183 ft 374 kts
2026-05-05 18:59 49.03063 9.10812 16894 ft 377 kts
2026-05-05 18:59 49.05691 9.11144 17606 ft 381 kts
2026-05-05 18:59 49.08345 9.11479 18277 ft 384 kts
2026-05-05 19:00 49.11021 9.11817 18863 ft 389 kts
2026-05-05 19:00 49.13781 9.12167 19013 ft 407 kts
2026-05-05 19:00 49.16626 9.12525 19139 ft 424 kts
2026-05-05 19:00 49.19611 9.12902 19368 ft 435 kts
2026-05-05 19:01 49.22639 9.13308 19784 ft 439 kts
2026-05-05 19:01 49.25691 9.13744 20139 ft 440 kts
2026-05-05 19:01 49.28767 9.14195 19734 ft 439 kts
2026-05-05 19:01 49.31803 9.14639 19249 ft 437 kts
2026-05-05 19:02 49.34776 9.15070 18771 ft 434 kts
2026-05-05 19:02 49.37774 9.15500 18302 ft 432 kts
2026-05-05 19:02 49.40755 9.15924 17797 ft 429 kts
2026-05-05 19:02 49.43717 9.16347 17263 ft 426 kts
2026-05-05 19:03 49.46658 9.16769 16737 ft 426 kts
2026-05-05 19:03 49.49624 9.17197 16219 ft 429 kts
2026-05-05 19:03 49.52629 9.17630 15702 ft 427 kts
2026-05-05 19:03 49.55574 9.18054 15206 ft 424 kts
2026-05-05 19:04 49.58504 9.18477 14715 ft 421 kts
2026-05-05 19:04 49.61366 9.18889 14243 ft 417 kts
2026-05-05 19:04 49.64211 9.19662 13765 ft 416 kts 15°
2026-05-05 19:04 49.66857 9.21568 13240 ft 415 kts 32°
2026-05-05 19:05 49.69040 9.24458 12710 ft 414 kts 46°
2026-05-05 19:05 49.71042 9.27630 12193 ft 411 kts 41°
2026-05-05 19:05 49.73337 9.30102 11689 ft 406 kts 26°
2026-05-05 19:05 49.75969 9.31573 11189 ft 401 kts 11°
2026-05-05 19:06 49.78694 9.32465 10695 ft 399 kts 10°
2026-05-05 19:06 49.81410 9.33262 10206 ft 395 kts
2026-05-05 19:06 49.84087 9.32852 9892 ft 384 kts 339°
2026-05-05 19:06 49.86319 9.30776 9815 ft 365 kts 313°
2026-05-05 19:07 49.87640 9.27658 9830 ft 330 kts 287°
2026-05-05 19:07 49.88256 9.24437 9832 ft 296 kts 283°
2026-05-05 19:07 49.88801 9.21515 9833 ft 268 kts 283°
2026-05-05 19:07 49.89303 9.18861 9835 ft 250 kts 283°
2026-05-05 19:08 49.89789 9.16295 9838 ft 247 kts 283°
2026-05-05 19:08 49.90268 9.13753 9838 ft 245 kts 283°
2026-05-05 19:08 49.90746 9.11213 9842 ft 245 kts 283°
2026-05-05 19:08 49.91225 9.08673 9838 ft 244 kts 283°
2026-05-05 19:09 49.91703 9.06149 9838 ft 244 kts 283°
2026-05-05 19:09 49.92178 9.03629 9838 ft 244 kts 283°
2026-05-05 19:09 49.92657 9.01105 9832 ft 244 kts 283°
2026-05-05 19:09 49.93133 8.98583 9784 ft 245 kts 283°
2026-05-05 19:10 49.93608 8.96053 9513 ft 242 kts 283°
2026-05-05 19:10 49.94079 8.93555 9164 ft 241 kts 283°
2026-05-05 19:10 49.94683 8.91138 8804 ft 243 kts 300°
2026-05-05 19:10 49.95931 8.89373 8448 ft 248 kts 331°
2026-05-05 19:11 49.97622 8.88827 8071 ft 254 kts
2026-05-05 19:11 49.99298 8.89681 7696 ft 258 kts 33°
2026-05-05 19:11 50.00493 8.91728 7323 ft 257 kts 64°
2026-05-05 19:11 50.01147 8.94311 6947 ft 257 kts 73°
2026-05-05 19:12 50.01685 8.96945 6820 ft 255 kts 73°
2026-05-05 19:12 50.02210 8.99594 6795 ft 256 kts 74°
2026-05-05 19:12 50.02730 9.02232 6480 ft 255 kts 74°
2026-05-05 19:12 50.03249 9.04876 6084 ft 256 kts 74°
2026-05-05 19:13 50.03792 9.07512 5683 ft 257 kts 67°
2026-05-05 19:13 50.04838 9.09684 5272 ft 256 kts 36°
2026-05-05 19:13 50.06464 9.10779 4863 ft 252 kts
2026-05-05 19:13 50.08157 9.10453 4458 ft 245 kts 333°
2026-05-05 19:14 50.09471 9.08905 4078 ft 239 kts 308°
2026-05-05 19:14 50.10483 9.06944 4019 ft 230 kts 304°
2026-05-05 19:14 50.11446 9.04944 4021 ft 230 kts 303°
2026-05-05 19:14 50.12149 9.02749 4019 ft 226 kts 281°
2026-05-05 19:15 50.12392 9.00338 4020 ft 225 kts 275°
2026-05-05 19:15 50.12558 8.97910 4018 ft 225 kts 274°
2026-05-05 19:15 50.12636 8.95482 4013 ft 223 kts 259°
2026-05-05 19:15 50.12179 8.93186 4013 ft 220 kts 249°
2026-05-05 19:16 50.11664 8.91039 4010 ft 203 kts 249°
2026-05-05 19:16 50.11341 8.89678 4008 ft 193 kts 249°
2026-05-05 19:16 50.10902 8.87814 4006 ft 179 kts 249°
2026-05-05 19:16 50.10486 8.86048 4019 ft 172 kts 249°
2026-05-05 19:17 50.10075 8.84302 3806 ft 171 kts 249°
2026-05-05 19:17 50.09668 8.82573 3579 ft 169 kts 249°
2026-05-05 19:17 50.09262 8.80849 3355 ft 170 kts 250°
2026-05-05 19:17 50.08856 8.79129 3137 ft 169 kts 250°
2026-05-05 19:18 50.08450 8.77410 2907 ft 169 kts 249°
2026-05-05 19:18 50.08047 8.75701 2673 ft 168 kts 249°
2026-05-05 19:18 50.07646 8.74004 2455 ft 168 kts 250°
2026-05-05 19:18 50.07242 8.72299 2228 ft 168 kts 250°
2026-05-05 19:19 50.06841 8.70606 2008 ft 162 kts 249°
2026-05-05 19:19 50.06475 8.69058 1798 ft 144 kts 249°
2026-05-05 19:19 50.06141 8.67651 1601 ft 135 kts 249°
2026-05-05 19:19 50.05821 8.66302 1393 ft 131 kts 248°
2026-05-05 19:20 50.05500 8.64973 1184 ft 132 kts 250°
2026-05-05 19:20 50.05191 8.63630 1012 ft 132 kts 250°
2026-05-05 19:20 50.04868 8.62285 872 ft 133 kts 248°
2026-05-05 19:20 50.04543 8.60929 689 ft 134 kts 250°
2026-05-05 19:21 50.04223 8.59568 509 ft 134 kts 249°
2026-05-05 19:21 50.03897 8.58217 359 ft 133 kts 249°
2026-05-05 19:21 50.03614 8.57016 345 ft 95 kts 250°
2026-05-05 19:21 50.03445 8.56303 346 ft 46 kts 250°
2026-05-05 19:22 50.03442 8.56012 344 ft 18 kts 281°
2026-05-05 19:22 50.03462 8.55826 342 ft 18 kts 278°
2026-05-05 19:22 50.03472 8.55745 342 ft 0 kts 286°
2026-05-05 19:22 50.03473 8.55732 351 ft 8 kts 281°
2026-05-05 19:23 50.03491 8.55563 342 ft 18 kts 277°
2026-05-05 19:23 50.03469 8.55375 345 ft 19 kts 250°
2026-05-05 19:23 50.03425 8.55193 345 ft 16 kts 250°
2026-05-05 19:23 50.03383 8.55014 346 ft 19 kts 250°
2026-05-05 19:24 50.03335 8.54815 342 ft 21 kts 249°
2026-05-05 19:24 50.03290 8.54631 344 ft 12 kts 249°
2026-05-05 19:24 50.03277 8.54512 351 ft 11 kts 292°
2026-05-05 19:24 50.03337 8.54466 342 ft 9 kts 342°
2026-05-05 19:25 50.03391 8.54435 342 ft 5 kts 339°
2026-05-05 19:25 50.03392 8.54434 342 ft 0 kts 339°
2026-05-05 19:25 50.03393 8.54434 342 ft 1 kts 339°
2026-05-05 19:25 50.03450 8.54400 346 ft 12 kts 339°
2026-05-05 19:26 50.03524 8.54357 347 ft 11 kts 339°
2026-05-05 19:26 50.03591 8.54318 344 ft 10 kts 340°
2026-05-05 19:26 50.03646 8.54309 345 ft 4 kts 26°
2026-05-05 19:26 50.03657 8.54321 348 ft 0 kts 44°
2026-05-05 19:27 50.03663 8.54338 346 ft 10 kts 62°
2026-05-05 19:28 50.03704 8.54509 343 ft 19 kts 70°
2026-05-05 19:28 50.03753 8.54715 349 ft 22 kts 69°
2026-05-05 19:28 50.03806 8.54941 344 ft 23 kts 70°
2026-05-05 19:28 50.03858 8.55156 350 ft 20 kts 70°
2026-05-05 19:29 50.03910 8.55367 343 ft 22 kts 69°
2026-05-05 19:29 50.03965 8.55604 345 ft 24 kts 69°
2026-05-05 19:29 50.04028 8.55864 351 ft 27 kts 70°
2026-05-05 19:29 50.04065 8.56020 344 ft 13 kts 69°
2026-05-05 19:30 50.04095 8.56143 345 ft 12 kts 70°
2026-05-05 19:30 50.04131 8.56299 345 ft 17 kts 69°
2026-05-05 19:30 50.04175 8.56481 348 ft 19 kts 70°
2026-05-05 19:30 50.04215 8.56648 347 ft 15 kts 69°
2026-05-05 19:31 50.04257 8.56786 347 ft 14 kts 45°
2026-05-05 19:31 50.04352 8.56830 343 ft 19 kts 10°
2026-05-05 19:31 50.04481 8.56866 343 ft 18 kts 12°
2026-05-05 19:31 50.04587 8.56905 343 ft 15 kts 12°
2026-05-05 19:32 50.04679 8.56952 346 ft 13 kts 24°
2026-05-05 19:32 50.04761 8.57010 345 ft 12 kts 24°
2026-05-05 19:32 50.04834 8.57062 350 ft 10 kts 25°
2026-05-05 19:32 50.04879 8.57078 346 ft 5 kts 352°
2026-05-05 19:33 50.04903 8.57064 351 ft 3 kts 337°
2026-05-05 19:33 50.04917 8.57060 346 ft 1 kts 13°
2026-05-05 19:33 50.04919 8.57075 348 ft 1 kts 73°
2026-05-05 19:33 50.04917 8.57084 347 ft 1 kts 93°
2026-05-05 19:34 50.04917 8.57086 346 ft 0 kts 96°